Weather History for Dubai International Airport, UAE

Change the Weather History Date:

Wednesday, July 3, 2013

  Actual Average Record
Temperature  
Mean Temperature 101 °F -  
Max Temperature 111 °F 103 °F - ()
Min Temperature 91 °F 85 °F - ()
Cooling Degree Days 36    
Growing Degree Days 51 (Base 50)    
Moisture  
Dew Point 62 °F    
Average Humidity 31    
Maximum Humidity 49    
Minimum Humidity 8    
Precipitation  
Precipitation 0.00 in 0.00 in - ()
Sea Level Pressure  
Sea Level Pressure 29.43 in    
Wind  
Wind Speed 6 mph ()    
Max Wind Speed 16 mph    
Max Gust Speed -    
Visibility 5.4 miles    
Events      
T = Trace of Precipitation, MM = Missing Value Source: Averaged Metar Reports

Daily Weather History Graph

Daily Weather History Graph

Search for Another Location

Airport:

Trip Planner

Search our weather history database for the weather conditions in past years. The results will help you decide how hot, cold, wet, or windy it might be!

Date:

Astronomy

Jul. 03, 2013 Rise Set
Actual Time 5:32 AM GST 7:12 PM GST
Civil Twilight 5:06 AM GST 7:38 PM GST
Nautical Twilight 4:35 AM GST 8:09 PM GST
Astronomical Twilight 4:03 AM GST 8:41 PM GST
Moon 1:42 AM GST (7/3) 3:11 PM GST (7/3)
Length of Visible Light 14h 31m
Length of Day
13h 40m
Waning Crescent, 21% of the Moon is Illuminated
Jul 3
Waning Crescent
Jul 8
New
Jul 16
First Quarter
Jul 22
Full
Jul 29
Last Quarter

Hourly Weather History & Observations

Time (GST) Temp. Heat Index Dew Point Humidity Pressure Visibility Wind Dir Wind Speed Gust Speed Precip Events Conditions
12:00 AM 95.0 °F 101.3 °F 69.8 °F 44% 29.42 in - ENE 4.6 mph - N/A   Clear
1:00 AM 95 °F - 69 °F 34% 29.43 in 6 mi East 4.6 mph - -  
1:00 AM 95.0 °F 101.3 °F 69.8 °F 44% 29.42 in - East 4.6 mph - N/A   Clear
2:00 AM 93.2 °F 100.5 °F 71.6 °F 49% 29.42 in - East 5.8 mph - N/A   Clear
3:00 AM 93.2 °F 98.8 °F 69.8 °F 46% 29.42 in - NE 5.8 mph - N/A   Clear
4:00 AM 93.2 °F 97.7 °F 68.0 °F 44% 29.42 in - East 5.8 mph - N/A   Clear
5:00 AM 93.2 °F 94.9 °F 64.4 °F 38% 29.42 in - SE 4.6 mph - N/A   Clear
6:00 AM 91.4 °F 92.1 °F 62.6 °F 38% 29.44 in 5.0 mi South 4.6 mph - N/A   Unknown
7:00 AM 94 °F - 58 °F 21% 29.47 in 5 mi South 4.6 mph - -   Widespread Dust
7:00 AM 93.2 °F 92.6 °F 59.0 °F 32% 29.44 in 5.0 mi South 4.6 mph - N/A   Unknown
8:00 AM 96.8 °F 95.8 °F 57.2 °F 27% 29.47 in 5.0 mi South 4.6 mph - N/A   Unknown
9:00 AM 102.2 °F 100.9 °F 55.4 °F 21% 29.47 in 5.0 mi SSW 3.5 mph - N/A   Unknown
10:00 AM 107.6 °F - 48.2 °F 14% 29.44 in - SSE 4.6 mph - N/A   Clear
11:00 AM 111.2 °F - 48.2 °F 12% 29.44 in - West 6.9 mph - N/A   Clear
12:00 PM 109.4 °F - 51.8 °F 15% 29.44 in - West 8.1 mph - N/A   Clear
1:00 PM 110 °F - 51 °F 8% 29.44 in 6 mi West 8.1 mph - -  
1:00 PM 111.2 °F - 51.8 °F 14% 29.42 in - West 8.1 mph - N/A   Clear
2:00 PM 107.6 °F - 50.0 °F 15% 29.42 in - NW 15.0 mph - N/A   Clear
3:00 PM 102.2 °F 105.5 °F 64.4 °F 29% 29.42 in 5.6 mi NW 16.1 mph - N/A   Unknown
4:00 PM 102.2 °F 104.2 °F 62.6 °F 27% 29.42 in - NW 13.8 mph - N/A   Clear
5:00 PM 100.4 °F 103.6 °F 64.4 °F 31% 29.42 in - NW 12.7 mph - N/A   Clear
6:00 PM 100.4 °F 102.4 °F 62.6 °F 29% 29.39 in - NW 10.4 mph - N/A   Clear
7:00 PM 97 °F - 62 °F 22% 29.42 in 6 mi NW 11.5 mph - -  
7:00 PM 96.8 °F 97.1 °F 60.8 °F 30% 29.42 in - NW 11.5 mph - N/A   Clear
8:00 PM 96.8 °F 100.7 °F 66.2 °F 37% 29.42 in - West 8.1 mph - N/A   Clear
9:00 PM 95.0 °F 99.5 °F 68.0 °F 41% 29.44 in - Variable 2.3 mph - N/A   Clear
10:00 PM 95.0 °F 104.5 °F 73.4 °F 49% 29.44 in - West 6.9 mph - N/A   Clear
11:00 PM 95.0 °F 104.5 °F 73.4 °F 49% 29.44 in - WSW 5.8 mph - N/A   Clear